INMARSAT 6-F1

Last updated on Thu Aug 13 2026 00:03:02 GMT+0000 (Coordinated Universal Time)

1 50319U 21128A 26224.61517167 -.00000189 00000+0 00000+0 0 9999 2 50319 0.0137 81.3099 0000086 233.2374 311.7215 1.00270229 16829
UTC large
Height (km)
Speed (km/s)
/
Latitude / Longitude
Inclination (degrees)
Orbital Period (minutes)
Azimuth
Elevation
Range (km)
Doppler Factor

Next 0 passes for location: London (51.5072 / 0.1276)

No passes found over London.
INMARSAT 6-F1